Location: Ca�n Batista
(41.4099°N, 1.7752°E)
Time: 14:11:59
(UTC+00:00)

IRS-1A Rocket - Pass Details

Date: 03 March 2021
Orbit: 852 x 930 km, 99.2° (Epoch: 21 April)

Event Time Altitude Azimuth Distance (km) Brightness Sun altitude
Exits shadow 19:46:40 44° 143° (SE) 1,206 4.6 -23.3°
Maximum altitude 19:48:30 72° 73° (ENE) 922 4.1 -23.6°
Drops below altitude 10° 19:54:04 10° 350° (N) 2,514 6.9 -24.6°
Sets 19:56:26 0° 349° (NNW) 3,447 7.7 -25.1°
